User: anonymous   Login
Location: Unspecified
(0.0000°N, 0.0000°E)
Time: 09:35:49
(UTC+00:00)
Language:

COSMOS 2496 - Orbit

View from above orbital plane
View from above orbital plane
View from above satellite
View from above satellite

Ground track
Ground track

The orbit is defined by the following mean orbital elements,

1 39761U          26104.18821838 +.00000000 +00000-0 +45191-3 0 00004
2 39761  82.4460 148.8193 0019269 215.2016 144.7792 12.42875780    08
Epoch (UTC): 14 April 2026 04:31:02
Eccentricity: 0.0019269
inclination: 82.4460°
perigee height: 1479 km
apogee height: 1510 km
right ascension of ascending node: 148.8193°
argument of perigee: 215.2016°
revolutions per day: 12.42875780
mean anomaly at epoch: 144.7792°

The dashed part of the orbit path shows where the satellite is in the earth's shadow,  

DLR